This is the latest recevied weather packets stored in our database for station/object EA3AGY-13. If no packets are shown the sender has not sent any weather packets the latest 10 day(s).
| Time | Temp. | Humidity | Pressure | Rain* | Wind** | Luminosity | Snow |
|---|---|---|---|---|---|---|---|
| 1778092810 | 9.44° C | 29% | 1010.7 hPa | 0 mm | - | - | - |
| 1778092206 | 9.44° C | 29% | 1010.6 hPa | 0 mm | - | - | - |
| 1778089198 | 10° C | 30% | 1010.2 hPa | 0 mm | - | - | - |
| 1778088592 | 9.44° C | 30% | 1010.1 hPa | 0 mm | - | - | - |
| 1778086179 | 9.44° C | 33% | 1009.8 hPa | 0 mm | - | - | - |
| 1778084371 | 9.44° C | 27% | 1009.7 hPa | 0 mm | - | - | - |
| 1778083769 | 9.44° C | 22% | 1009.6 hPa | 0 mm | - | - | - |
| 1778083167 | 10° C | 19% | 1009.4 hPa | 0 mm | - | - | - |
| 1778079553 | 13.33° C | 20% | 1009.3 hPa | 0 mm | - | - | - |
| 1778078950 | 12.22° C | 21% | 1009.3 hPa | 0 mm | - | - | - |
| 1778078348 | 12.22° C | 24% | 1009.4 hPa | 0 mm | - | - | - |
| 1778076541 | 11.11° C | 29% | 1009.5 hPa | 0 mm | - | - | - |
| 1778075939 | 12.22° C | 27% | 1009.5 hPa | 0 mm | - | - | - |
| 1778075336 | 11.67° C | 27% | 1009.6 hPa | 0 mm | - | - | - |
| 1778074131 | 10.56° C | 28% | 1009.8 hPa | 0 mm | - | - | - |
| 1778072324 | 12.22° C | 25% | 1009.9 hPa | 0 mm | - | - | - |
| 1778068710 | 11.11° C | 25% | 1010 hPa | 1.78 mm | - | - | - |
| 1778068110 | 11.67° C | 26% | 1009.9 hPa | 1.78 mm | - | - | - |
| 1778066903 | 12.22° C | 29% | 1009.8 hPa | 1.78 mm | - | - | - |
| 1778066300 | 11.67° C | 29% | 1009.9 hPa | 1.78 mm | - | - | - |
| 1778065698 | 11.11° C | 28% | 1010 hPa | 1.78 mm | - | - | - |
| 1778065096 | 10° C | 28% | 1010 hPa | 1.78 mm | - | - | - |
| 1778064494 | 10.56° C | 29% | 1010 hPa | 1.78 mm | - | - | - |
| 1778063892 | 11.11° C | 31% | 1010 hPa | 1.78 mm | - | - | - |
| 1778063289 | 10.56° C | 31% | 1009.9 hPa | 1.78 mm | - | - | - |
* Rain since midnight (hover to see other rain measurements)
** Current wind speed in m/s (hover to see current wind gust speed)